Location: Capannuccia
(43.7000°N, 11.3000°E)
Time: 12:40:28
(UTC+00:00)

Cosmos 2237 - Pass Details

Date: 07 June 2020
Orbit: 844 x 858 km, 70.8° (Epoch: 01 July)

Event Time Altitude Azimuth Distance (km) Brightness Sun altitude
Exits shadow 01:54:30 19° 200° (SSW) 1,938 5.5 -14.0°
Maximum altitude 01:58:46 84° 115° (ESE) 864 4.2 -13.5°
Drops below altitude 10° 02:04:31 10° 27° (NNE) 2,497 8.0 -12.8°
Sets 02:06:59 0° 26° (NNE) 3,439 9.1 -12.6°
